Regional Weather Roundup
Issued by NWS

Home | Current Version | Previous Version | Text Only | Print | Product List | Glossary On
Versions: 1 2 3 4 5 6 7 8 9 10 11 12 13 14 15 16 17 18 19 20 21 22 23 24 25 26 27 28 29 30 31 32 33 34 35 36 37 38 39 40 41 42 43 44 45 46 47 48 49 50
512
ASUS45 KABQ 241801
RWRNM
NEW MEXICO REGIONAL WEATHER ROUNDUP
NATIONAL WEATHER SERVICE ALBUQUERQUE NM
1200 PM MDT SAT JUN 24 2017

NOTE: "FAIR" MEANS FEW OR NO CLOUDS BELOW 12,000 FEET AGL WITH NO
       SIGNIFICANT WEATHER OR OBSTRUCTIONS TO VISION.

      THIS PRODUCT IS RELEASED AS TWO VERSIONS.  ONE VERSION NEAR
      THE TOP OF THE HOUR CONTAINING PRELIMINARY DATA FROM ALBUQUERQUE
      AND OTHER STATIONS.  A FINAL VERSION WITH ADDITIONAL DATA IS
      ISSUED ABOUT 10 MINUTES AFTER THE HOUR.

NMZ501-503-504-510>518-241900-
NORTHWEST PLATEAU/NORTHCENTRAL MOUNTAINS

CITY           SKY/WX    TMP DP  RH WIND       PRES   REMARKS
FARMINGTON     FAIR      84  37  18 NW5       30.19F
6HR MIN TEMP:  56; 6HR MAX TEMP:  84;

LOS ALAMOS     FAIR      69  50  50 S20G25    30.36F
SANTA FE       FAIR      73  52  47 SE22G29   30.33F
6HR MIN TEMP:  61; 6HR MAX TEMP:  73;

TAOS           FAIR      73  50  43 W12         N/A
ANGEL FIRE     FAIR      67  51  56 S14       30.42S

$$
NMZ402-403-502-505>509-241900-
WESTCENTRAL MOUNTAINS/SOUTHWEST MOUNTAINS

CITY           SKY/WX    TMP DP  RH WIND       PRES   REMARKS
GALLUP         FAIR      89  27  10 NE7       30.26F
6HR MIN TEMP:  54; 6HR MAX TEMP:  90;

GRANTS         FAIR      81  52  35 SE12G23   30.30F
SILVER CITY    FAIR      89  50  25 SE13G22   30.20S

$$
NMZ407-409-411-412-241900-
SOUTHERN DESERTS

CITY           SKY/WX    TMP DP  RH WIND       PRES   REMARKS
DEMING         FAIR      92  52  25 E16G22    30.11S
6HR MIN TEMP:  74; 6HR MAX TEMP:  93;

LAS CRUCES     FAIR      90  51  26 E17G26    30.16S
HOLLOMAN AFB   FAIR      91  51  25 S14G20    30.15S
ALAMOGORDO     FAIR      91  50  24 SW10G18   30.14S
T OR C         FAIR      88  54  31 VRB3      30.17F
6HR MIN TEMP:  75; 6HR MAX TEMP:  90;


$$
NMZ519>523-241900-
CENTRAL VALLEYS/CENTRAL HIGHLANDS

CITY           SKY/WX    TMP DP  RH WIND       PRES   REMARKS
ALBUQUERQUE    CLOUDY    80  52  37 E17       30.24F
6HR MIN TEMP:  68; 6HR MAX TEMP:  80;

DOUBLE EAGLE   PTSUNNY   77  54  44 VRB7      30.28F
MORIARTY ARPT  FAIR      73  50  44 S9G16     30.37F
6HR MIN TEMP:  63; 6HR MAX TEMP:  73;

CLINES CORNERS FAIR      65  47  52 SE13G22   30.41F
6HR MIN TEMP:  53; 6HR MAX TEMP:  67;

BELEN          FAIR      83  50  31 SE7G16    30.23F
6HR MIN TEMP:  66; 6HR MAX TEMP:  83;

SOCORRO        FAIR      86  50  28 E8        30.19F
6HR MIN TEMP:  69; 6HR MAX TEMP:  86;


$$
NMZ524>526-539-540-241900-
SOUTHCENTRAL MOUNTAINS

CITY           SKY/WX    TMP DP  RH WIND       PRES   REMARKS
RUIDOSO        FAIR      63  48  59 SE15      30.43S

$$
NMZ527>531-241900-
NORTHEAST HIGHLANDS/NORTHEAST PLAINS

CITY           SKY/WX    TMP DP  RH WIND       PRES   REMARKS
LAS VEGAS      CLOUDY    63  46  54 SE15      30.40S
6HR MIN TEMP:  56; 6HR MAX TEMP:  65;

RATON          CLOUDY    63  45  51 S17       30.37F
6HR MIN TEMP:  55; 6HR MAX TEMP:  63;

CLAYTON        CLOUDY    65  46  50 S12       30.35S
6HR MIN TEMP:  56; 6HR MAX TEMP:  65;


$$
NMZ532>537-241900-
EASTCENTRAL PLAINS

CITY           SKY/WX    TMP DP  RH WIND       PRES   REMARKS
SANTA ROSA     CLOUDY    70  49  46 SE12      30.31F
TUCUMCARI      CLOUDY    70  54  56 SE12      30.30S
6HR MIN TEMP:  64; 6HR MAX TEMP:  70;

CANNON AFB     CLOUDY    66  58  76 SE13      30.33F
6HR MIN TEMP:  60; 6HR MAX TEMP:  66;

CLOVIS AIRPORT CLOUDY    66  55  67 SE12      30.33S

$$
NMZ028-029-538-241900-
SOUTHEAST PLAINS

CITY           SKY/WX    TMP DP  RH WIND       PRES   REMARKS
ROSWELL        CLOUDY    76  55  48 SE12      30.27F
6HR MIN TEMP:  70; 6HR MAX TEMP:  76;

ARTESIA        CLOUDY    75  57  53 E7G14     30.27F
CARLSBAD       FAIR      81  60  48 E10       30.23F
6HR MIN TEMP:  70; 6HR MAX TEMP:  81;

HOBBS          CLOUDY    72  59  64 E14       30.29S


$$




USA.gov is the U.S. government's official web portal to all federal, state and local government web resources and services.